Time[GMT],salinity[psu](1m),sigma_t[kg/m^3](1m),conductivity[msiemens/cm](1m),temperature[C](1m)
2018-09-29 02:00,32.137,23.978,38.838,13.99
2018-09-29 03:00,32.144,23.994,38.801,13.94
2018-09-29 04:00,32.170,24.030,38.756,13.86
2018-09-29 05:00,32.174,24.039,38.733,13.83
2018-09-29 06:00,32.176,24.043,38.726,13.82
2018-09-29 07:00,32.187,24.046,38.766,13.85
2018-09-29 08:00,32.245,24.103,38.774,13.79
2018-09-29 09:00,32.241,24.103,38.751,13.77
2018-09-29 10:00,32.238,24.097,38.766,13.79
2018-09-29 11:00,32.284,24.142,38.770,13.74
2018-09-29 12:00,32.328,24.185,38.782,13.70
2018-09-29 13:00,32.361,24.210,38.817,13.70
2018-09-29 14:00,32.362,24.195,38.891,13.78
2018-09-29 15:00,,,,
2018-09-29 16:00,32.367,24.127,39.215,14.13
2018-09-29 17:00,,,,
2018-09-29 18:00,32.392,24.101,39.444,14.35
2018-09-29 19:00,32.354,24.031,39.576,14.54
2018-09-29 20:00,32.286,23.971,39.538,14.58
2018-09-29 21:00,32.308,24.012,39.452,14.46
2018-09-29 22:00,32.309,24.031,39.381,14.38
2018-09-29 23:00,32.352,24.076,39.373,14.32
2018-09-30 00:00,32.364,24.120,39.230,14.15
2018-09-30 01:00,32.384,24.140,39.234,14.13
2018-09-30 02:00,32.403,24.171,39.181,14.05
2018-09-30 03:00,32.433,24.168,39.333,14.18
2018-09-30 05:00,32.352,24.109,39.226,14.16
2018-09-30 06:00,32.355,24.122,39.184,14.11
2018-09-30 07:00,32.377,24.155,39.135,14.03
2018-09-30 08:00,32.381,24.157,39.149,14.04
2018-09-30 09:00,32.368,24.148,39.125,14.03
2018-09-30 10:00,32.360,24.157,39.053,13.96
2018-09-30 11:00,32.355,24.152,39.047,13.96
2018-09-30 12:00,,,,
2018-09-30 13:00,32.343,24.127,39.107,14.04
2018-09-30 14:00,32.318,24.054,39.317,14.30
2018-09-30 15:00,32.327,24.034,39.446,14.43
2018-09-30 16:00,32.299,23.978,39.561,14.59
2018-09-30 17:00,32.216,23.816,39.890,15.05
2018-09-30 18:00,32.269,23.817,40.124,15.24
2018-09-30 19:00,32.362,23.792,40.633,15.68
2018-09-30 20:00,32.298,23.873,40.009,15.08
2018-09-30 21:00,32.329,23.940,39.860,14.88
2018-09-30 22:00,32.353,24.041,39.529,14.49
2018-09-30 23:00,32.308,24.052,39.279,14.27
2018-10-01 00:00,32.307,24.066,39.214,14.20
2018-10-01 01:00,32.313,24.096,39.111,14.08
2018-10-01 02:00,32.328,24.059,39.337,14.31
2018-10-01 03:00,32.337,24.095,39.219,14.17
2018-10-01 05:00,32.341,24.109,39.178,14.12
2018-10-01 06:00,32.315,24.037,39.378,14.37
2018-10-01 07:00,32.316,24.044,39.352,14.34
2018-10-01 08:00,32.313,24.046,39.330,14.32
2018-10-01 09:00,32.317,24.033,39.408,14.40
2018-10-01 10:00,32.322,24.049,39.358,14.34
2018-10-01 11:00,32.317,24.051,39.325,14.31
2018-10-01 12:00,32.327,24.094,39.181,14.14
2018-10-01 13:00,32.311,24.096,39.100,14.07
2018-10-01 14:00,,,,
2018-10-01 15:00,32.244,24.034,39.073,14.12
2018-10-01 16:00,32.228,24.026,39.037,14.10
2018-10-01 17:00,32.230,24.034,39.012,14.07
2018-10-01 18:00,32.252,24.061,38.990,14.02
2018-10-01 19:00,32.274,24.094,38.941,13.94
2018-10-01 20:00,32.290,24.121,38.895,13.87
2018-10-01 21:00,32.300,24.135,38.879,13.84
2018-10-01 22:00,32.359,24.191,38.897,13.79
2018-10-01 23:00,32.417,24.244,38.923,13.75
2018-10-02 00:00,32.353,24.202,38.818,13.71
2018-10-02 01:00,32.328,24.185,38.782,13.70
2018-10-02 02:00,32.294,24.152,38.772,13.73
2018-10-02 03:00,32.304,24.146,38.847,13.80
2018-10-02 04:00,32.288,24.124,38.875,13.85
2018-10-02 05:00,32.279,24.110,38.892,13.88
2018-10-02 06:00,32.281,24.104,38.931,13.92
2018-10-02 07:00,32.289,24.110,38.940,13.92
2018-10-02 08:00,32.294,24.108,38.972,13.95
2018-10-02 09:00,32.303,24.127,38.927,13.89
2018-10-02 10:00,32.296,24.146,38.811,13.77
2018-10-02 11:00,32.358,24.218,38.768,13.65
2018-10-02 12:00,,,,
2018-10-02 13:00,,,,
2018-10-02 14:00,32.623,24.461,38.879,13.46
2018-10-02 15:00,,,,
2018-10-02 16:00,32.648,24.499,38.824,13.37
2018-10-02 17:00,,,,
2018-10-02 18:00,,,,
2018-10-02 19:00,,,,
2018-10-02 20:00,32.576,24.482,38.564,13.17
2018-10-02 21:00,32.570,24.482,38.540,13.15
2018-10-02 22:00,32.600,24.474,38.718,13.31
2018-10-02 23:00,,,,
2018-10-03 00:00,32.473,24.413,38.409,13.12
2018-10-03 02:00,,,,
2018-10-03 03:00,32.416,24.343,38.467,13.25
2018-10-03 04:00,32.422,24.348,38.473,13.25
2018-10-03 05:00,32.357,24.293,38.422,13.27
2018-10-03 06:00,32.407,24.334,38.466,13.26
2018-10-03 07:00,32.393,24.333,38.406,13.21
2018-10-03 08:00,,,,
2018-10-03 09:00,32.298,24.272,38.251,13.15
2018-10-03 10:00,,,,
2018-10-03 11:00,,,,
2018-10-03 12:00,32.444,24.379,38.433,13.18
2018-10-03 13:00,32.463,24.393,38.453,13.18
2018-10-03 15:00,32.529,24.436,38.560,13.22
2018-10-03 16:00,,,,
2018-10-03 17:00,32.514,24.407,38.626,13.31
2018-10-03 18:00,32.494,24.388,38.623,13.33
2018-10-03 19:00,32.512,24.392,38.688,13.38
2018-10-03 20:00,32.502,24.382,38.686,13.39
2018-10-03 21:00,32.514,24.393,38.690,13.38
2018-10-03 23:00,32.490,24.385,38.619,13.33
2018-10-04 00:00,32.515,24.410,38.618,13.30
2018-10-04 01:00,32.483,24.377,38.620,13.34
2018-10-04 02:00,32.493,24.397,38.576,13.28
2018-10-04 03:00,32.511,24.419,38.559,13.24
2018-10-04 04:00,32.510,24.416,38.567,13.25
2018-10-04 05:00,32.532,24.431,38.600,13.26
2018-10-04 06:00,32.532,24.433,38.591,13.25
2018-10-04 07:00,32.541,24.444,38.582,13.23
2018-10-04 08:00,32.567,24.463,38.609,13.23
2018-10-04 09:00,32.585,24.480,38.620,13.22
2018-10-04 10:00,32.615,24.495,38.688,13.26
2018-10-04 11:00,32.647,24.510,38.768,13.31
2018-10-04 12:00,32.665,24.526,38.778,13.30
2018-10-04 13:00,32.678,24.530,38.819,13.33
2018-10-04 14:00,32.658,24.522,38.761,13.29
2018-10-04 15:00,32.668,24.528,38.781,13.30
2018-10-04 16:00,32.674,24.527,38.815,13.33
2018-10-04 17:00,32.682,24.529,38.842,13.35
2018-10-04 18:00,32.694,24.528,38.900,13.40
2018-10-04 19:00,32.711,24.529,38.973,13.46
2018-10-04 20:00,,,,
2018-10-04 21:00,32.698,24.541,38.859,13.35
2018-10-04 22:00,,,,
2018-10-04 23:00,32.708,24.545,38.888,13.37
2018-10-05 00:00,32.720,24.543,38.956,13.43
2018-10-05 01:00,32.737,24.547,39.010,13.47
2018-10-05 02:00,32.749,24.549,39.060,13.51
2018-10-05 03:00,32.743,24.544,39.053,13.51
2018-10-05 04:00,32.739,24.561,38.957,13.41
2018-10-05 05:00,32.566,24.469,38.581,13.20
2018-10-05 06:00,32.505,24.400,38.616,13.31
2018-10-05 07:00,32.542,24.438,38.610,13.26
2018-10-05 08:00,32.556,24.455,38.598,13.23
2018-10-05 09:00,32.633,24.525,38.634,13.18
2018-10-05 10:00,,,,
2018-10-05 11:00,32.604,24.508,38.576,13.15
2018-10-05 12:00,32.558,24.467,38.554,13.18
2018-10-05 13:00,32.486,24.396,38.551,13.26
2018-10-05 14:00,32.486,24.393,38.560,13.27
2018-10-05 15:00,32.451,24.358,38.559,13.31
2018-10-05 16:00,32.450,24.352,38.585,13.34
2018-10-05 17:00,,,,
2018-10-05 18:00,32.464,24.351,38.655,13.40
2018-10-05 19:00,32.475,24.353,38.694,13.43
2018-10-05 20:00,32.518,24.408,38.639,13.32
2018-10-05 21:00,32.528,24.424,38.614,13.28
2018-10-05 22:00,32.590,24.497,38.561,13.15
2018-10-05 23:00,32.716,24.609,38.631,13.08
2018-10-06 00:00,32.717,24.614,38.614,13.06
2018-10-06 01:00,32.704,24.604,38.600,13.06
2018-10-06 02:00,32.666,24.574,38.559,13.06
2018-10-06 03:00,32.563,24.480,38.514,13.13
2018-10-06 04:00,32.477,24.400,38.486,13.20
2018-10-06 05:00,32.311,24.252,38.400,13.30
2018-10-06 06:00,32.309,24.242,38.434,13.34
2018-10-06 07:00,32.312,24.248,38.419,13.32
2018-10-06 08:00,32.321,24.254,38.438,13.33
2018-10-06 09:00,32.327,24.260,38.435,13.32
2018-10-06 10:00,32.311,24.260,38.364,13.26
2018-10-06 11:00,32.333,24.287,38.342,13.21
2018-10-06 12:00,32.428,24.378,38.362,13.12
2018-10-06 13:00,32.690,24.600,38.548,13.02
2018-10-06 14:00,32.700,24.604,38.577,13.04
2018-10-06 15:00,32.698,24.595,38.612,13.08
2018-10-06 16:00,32.686,24.576,38.645,13.13
2018-10-06 17:00,32.669,24.549,38.691,13.20
2018-10-06 18:00,32.657,24.544,38.660,13.18
2018-10-06 19:00,32.652,24.541,38.645,13.17
2018-10-06 20:00,32.664,24.553,38.649,13.16
2018-10-06 21:00,32.657,24.544,38.660,13.18
2018-10-06 22:00,32.660,24.565,38.571,13.08
2018-10-06 23:00,32.665,24.579,38.531,13.03
2018-10-07 00:00,32.671,24.590,38.510,13.00
2018-10-07 01:00,32.661,24.582,38.499,13.00
2018-10-07 02:00,32.656,24.576,38.503,13.01
2018-10-07 03:00,32.649,24.573,38.487,13.00
2018-10-07 04:00,32.651,24.576,38.480,12.99
2018-10-07 05:00,32.652,24.577,38.481,12.99
2018-10-07 06:00,32.659,24.582,38.488,12.99
2018-10-07 07:00,32.660,24.583,38.489,12.99
2018-10-07 08:00,32.666,24.589,38.486,12.98
2018-10-07 09:00,,,,
2018-10-07 10:00,32.646,24.578,38.447,12.96
2018-10-07 11:00,32.644,24.579,38.436,12.95
2018-10-07 12:00,32.652,24.585,38.444,12.95
2018-10-07 13:00,32.629,24.565,38.429,12.96
2018-10-07 14:00,32.620,24.550,38.456,13.00
2018-10-07 15:00,32.619,24.542,38.492,13.04
2018-10-07 16:00,32.634,24.551,38.516,13.05
2018-10-07 17:00,32.618,24.523,38.573,13.13
2018-10-07 18:00,32.617,24.532,38.526,13.08
2018-10-07 19:00,32.470,24.371,38.588,13.32
2018-10-07 20:00,32.423,24.328,38.565,13.35
2018-10-07 21:00,32.408,24.315,38.558,13.36
2018-10-07 22:00,32.394,24.301,38.562,13.38
2018-10-07 23:00,32.510,24.422,38.540,13.22
2018-10-08 00:00,32.556,24.475,38.507,13.13
2018-10-08 01:00,32.578,24.502,38.485,13.08
2018-10-08 02:00,32.582,24.509,38.471,13.06
2018-10-08 03:00,,,,
2018-10-08 04:00,,,,
2018-10-08 05:00,32.587,24.521,38.439,13.02
2018-10-08 06:00,32.545,24.478,38.440,13.07
2018-10-08 07:00,32.447,24.377,38.454,13.20
2018-10-08 08:00,32.425,24.358,38.440,13.21
2018-10-08 09:00,32.416,24.349,38.440,13.22
2018-10-08 10:00,32.449,24.384,38.429,13.17
2018-10-08 11:00,32.494,24.431,38.423,13.11
2018-10-08 12:00,32.487,24.428,38.406,13.10
2018-10-08 13:00,32.508,24.448,38.410,13.08
2018-10-08 14:00,32.498,24.434,38.427,13.11
2018-10-08 15:00,32.481,24.415,38.436,13.14
2018-10-08 16:00,32.467,24.393,38.476,13.20
2018-10-08 17:00,32.446,24.360,38.526,13.28
2018-10-08 18:00,32.447,24.355,38.554,13.31
2018-10-08 19:00,32.470,24.385,38.524,13.25
2018-10-08 20:00,32.473,24.391,38.509,13.23
2018-10-08 21:00,32.464,24.384,38.500,13.23
2018-10-08 22:00,32.453,24.386,38.443,13.18
2018-10-08 23:00,32.455,24.385,38.454,13.19
2018-10-09 00:00,32.469,24.402,38.442,13.16
2018-10-09 01:00,32.448,24.378,38.456,13.20
2018-10-09 02:00,32.452,24.383,38.451,13.19
2018-10-09 03:00,32.431,24.355,38.483,13.25
2018-10-09 04:00,32.407,24.336,38.457,13.25
2018-10-09 05:00,32.395,24.326,38.444,13.25
2018-10-09 06:00,32.411,24.340,38.462,13.25
2018-10-09 07:00,32.412,24.340,38.463,13.25
2018-10-09 08:00,32.384,24.314,38.451,13.27
2018-10-09 09:00,,,,
2018-10-09 10:00,32.380,24.311,38.447,13.27
2018-10-09 11:00,32.393,24.323,38.451,13.26
2018-10-09 12:00,32.397,24.327,38.456,13.26
2018-10-09 13:00,32.417,24.342,38.477,13.26
2018-10-09 14:00,32.423,24.343,38.502,13.28
2018-10-09 15:00,32.429,24.345,38.517,13.29
2018-10-09 16:00,32.411,24.318,38.562,13.36
2018-10-09 17:00,32.415,24.312,38.602,13.40
2018-10-09 18:00,,,,
2018-10-09 19:00,32.375,24.257,38.668,13.52
2018-10-09 20:00,32.323,24.201,38.685,13.60
2018-10-09 21:00,32.313,24.190,38.693,13.62
2018-10-09 22:00,32.330,24.214,38.656,13.56
2018-10-09 23:00,32.337,24.224,38.646,13.54
2018-10-10 00:00,32.322,24.209,38.648,13.56
2018-10-10 01:00,32.311,24.194,38.663,13.59
2018-10-10 02:00,32.311,24.192,38.672,13.60
2018-10-10 03:00,32.335,24.221,38.653,13.55
2018-10-10 04:00,32.346,24.235,38.637,13.52
2018-10-10 05:00,32.362,24.253,38.627,13.49
2018-10-10 06:00,32.359,24.251,38.624,13.49
2018-10-10 07:00,32.375,24.274,38.596,13.44
2018-10-10 08:00,32.266,24.133,38.733,13.72
2018-10-10 09:00,32.250,24.119,38.725,13.73
2018-10-10 10:00,32.252,24.124,38.709,13.71
2018-10-10 11:00,32.218,24.089,38.708,13.75
2018-10-10 12:00,32.195,24.064,38.720,13.79
2018-10-10 13:00,32.147,24.003,38.777,13.91
2018-10-10 14:00,32.163,24.006,38.830,13.95
2018-10-10 15:00,32.153,23.970,38.946,14.09
2018-10-10 16:00,32.178,23.990,38.974,14.09
2018-10-10 17:00,,,,
2018-10-10 18:00,32.169,23.912,39.273,14.43
2018-10-10 19:00,32.154,23.896,39.275,14.45
2018-10-10 20:00,32.133,23.857,39.352,14.56
2018-10-10 21:00,32.209,23.949,39.289,14.40
2018-10-10 22:00,32.347,24.152,39.011,13.93
2018-10-10 23:00,32.420,24.254,38.890,13.71
2018-10-11 00:00,32.423,24.256,38.893,13.71
2018-10-11 01:00,32.452,24.281,38.915,13.70
2018-10-11 02:00,32.450,24.277,38.922,13.71
2018-10-11 03:00,32.455,24.273,38.964,13.75
2018-10-11 04:00,32.528,24.386,38.787,13.47
2018-10-11 05:00,,,,
2018-10-11 06:00,32.512,24.363,38.815,13.52
2018-10-11 07:00,32.470,24.337,38.743,13.49
2018-10-11 08:00,32.396,24.252,38.791,13.63
2018-10-11 09:00,32.365,24.224,38.776,13.65
2018-10-11 10:00,32.372,24.235,38.756,13.62
2018-10-11 11:00,32.395,24.263,38.735,13.57
2018-10-11 12:00,32.416,24.295,38.685,13.49
2018-10-11 13:00,32.445,24.333,38.643,13.41
2018-10-11 14:00,32.485,24.378,38.622,13.34
2018-10-11 15:00,32.531,24.440,38.553,13.21
2018-10-11 17:00,32.638,24.507,38.740,13.29
2018-10-11 18:00,,,,
2018-10-11 19:00,32.695,24.555,38.782,13.27
2018-10-11 20:00,32.582,24.507,38.480,13.07
2018-10-11 21:00,32.517,24.441,38.483,13.15
2018-10-11 22:00,,,,
2018-10-11 23:00,32.405,24.323,38.510,13.31
2018-10-12 00:00,,,,
2018-10-12 01:00,32.438,24.354,38.518,13.28
2018-10-12 02:00,32.426,24.341,38.523,13.30
2018-10-12 03:00,32.470,24.387,38.515,13.24
2018-10-12 04:00,32.522,24.435,38.534,13.20
2018-10-12 05:00,32.601,24.500,38.600,13.18
2018-10-12 06:00,,,,
2018-10-12 07:00,32.664,24.535,38.731,13.25
2018-10-12 08:00,32.660,24.538,38.699,13.22
2018-10-12 09:00,32.646,24.540,38.620,13.15
2018-10-12 10:00,32.646,24.547,38.593,13.12
2018-10-12 11:00,32.655,24.556,38.594,13.11
2018-10-12 12:00,32.669,24.580,38.544,13.04
2018-10-12 13:00,,,,
2018-10-12 14:00,32.611,24.544,38.447,13.00
2018-10-12 15:00,32.622,24.552,38.458,13.00
2018-10-12 16:00,32.645,24.571,38.473,12.99
2018-10-12 17:00,,,,
2018-10-12 18:00,32.642,24.566,38.489,13.01
2018-10-12 19:00,32.604,24.528,38.485,13.05
2018-10-12 20:00,32.554,24.481,38.468,13.09
2018-10-12 21:00,32.526,24.454,38.466,13.12
2018-10-12 22:00,32.534,24.464,38.456,13.10
2018-10-12 23:00,32.541,24.473,38.445,13.08
2018-10-13 00:00,32.537,24.474,38.423,13.06
2018-10-13 01:00,32.549,24.485,38.426,13.05
2018-10-13 02:00,32.555,24.490,38.433,13.05
2018-10-13 03:00,32.580,24.509,38.459,13.05
2018-10-13 04:00,,,,
2018-10-13 05:00,32.574,24.520,38.380,12.97
2018-10-13 06:00,32.564,24.519,38.342,12.94
2018-10-13 07:00,32.569,24.524,38.338,12.93
2018-10-13 08:00,32.547,24.511,38.297,12.91
2018-10-13 09:00,32.542,24.512,38.274,12.89
2018-10-13 10:00,32.516,24.483,38.282,12.93
2018-10-13 11:00,32.520,24.490,38.268,12.91
2018-10-13 12:00,32.503,24.472,38.278,12.94
2018-10-13 13:00,32.467,24.448,38.222,12.92
2018-10-13 14:00,32.487,24.467,38.224,12.90
2018-10-13 15:00,,,,
2018-10-13 16:00,32.503,24.479,38.241,12.90
2018-10-13 17:00,32.539,24.505,38.288,12.91
2018-10-13 18:00,32.560,24.524,38.302,12.90
2018-10-13 19:00,32.567,24.535,38.282,12.87
2018-10-13 20:00,32.541,24.514,38.254,12.87
2018-10-13 21:00,32.471,24.455,38.208,12.90
2018-10-13 22:00,32.496,24.478,38.216,12.88
2018-10-13 23:00,32.511,24.492,38.223,12.87
2018-10-14 00:00,32.521,24.499,38.233,12.87
2018-10-14 01:00,32.522,24.506,38.207,12.84
2018-10-14 02:00,32.514,24.505,38.171,12.81
2018-10-14 04:00,32.568,24.551,38.210,12.79
2018-10-14 05:00,32.576,24.556,38.228,12.80
2018-10-14 06:00,32.571,24.551,38.222,12.80
2018-10-14 07:00,32.568,24.557,38.183,12.76
2018-10-14 08:00,,,,
2018-10-14 09:00,32.550,24.550,38.127,12.72
2018-10-14 10:00,32.488,24.508,38.035,12.69
2018-10-14 11:00,32.429,24.465,37.964,12.68
2018-10-14 12:00,32.447,24.467,38.037,12.74
2018-10-14 13:00,32.445,24.463,38.044,12.75
2018-10-14 14:00,32.454,24.465,38.081,12.78
2018-10-14 15:00,32.471,24.464,38.162,12.85
2018-10-14 16:00,32.502,24.488,38.195,12.85
2018-10-14 17:00,32.463,24.452,38.181,12.88
2018-10-14 18:00,32.435,24.427,38.170,12.90
2018-10-14 19:00,32.423,24.409,38.193,12.94
2018-10-14 20:00,32.434,24.418,38.205,12.94
2018-10-14 21:00,32.425,24.411,38.195,12.94
2018-10-14 22:00,32.449,24.437,38.184,12.90
2018-10-14 23:00,32.474,24.464,38.174,12.86
2018-10-15 00:00,32.466,24.464,38.139,12.83
2018-10-15 02:00,32.414,24.422,38.093,12.84
2018-10-15 03:00,32.397,24.409,38.075,12.84
2018-10-15 04:00,32.409,24.424,38.061,12.81
2018-10-15 05:00,32.378,24.404,38.010,12.79
2018-10-15 06:00,32.348,24.375,38.005,12.82
2018-10-15 07:00,32.310,24.343,37.974,12.83
2018-10-15 09:00,,,,
2018-10-15 10:00,32.318,24.350,37.983,12.83
2018-10-15 11:00,32.352,24.378,38.009,12.82
2018-10-15 12:00,32.280,24.319,37.952,12.84
2018-10-15 13:00,32.233,24.268,37.965,12.91
2018-10-15 14:00,,,,
2018-10-15 15:00,32.269,24.286,38.048,12.96
2018-10-15 16:00,32.318,24.338,38.037,12.89
2018-10-15 17:00,32.357,24.374,38.051,12.86
2018-10-15 18:00,,,,
2018-10-15 19:00,32.430,24.431,38.128,12.86
2018-10-15 20:00,32.443,24.443,38.133,12.85
2018-10-15 21:00,32.465,24.462,38.147,12.84
2018-10-15 22:00,32.427,24.426,38.134,12.87
2018-10-15 23:00,32.396,24.396,38.128,12.90
2018-10-16 00:00,32.390,24.390,38.131,12.91
2018-10-16 01:00,32.422,24.417,38.156,12.90
2018-10-16 02:00,32.386,24.387,38.127,12.91
2018-10-16 03:00,32.388,24.380,38.165,12.95
2018-10-16 04:00,32.351,24.344,38.162,12.99
2018-10-16 05:00,32.340,24.335,38.150,12.99
2018-10-16 06:00,,,,
2018-10-16 07:00,,,,
2018-10-16 08:00,32.397,24.393,38.147,12.92
2018-10-16 09:00,32.402,24.399,38.144,12.91
2018-10-16 10:00,32.373,24.373,38.131,12.93
2018-10-16 11:00,32.321,24.326,38.103,12.96
2018-10-16 12:00,32.316,24.319,38.116,12.98
2018-10-16 13:00,32.308,24.313,38.108,12.98
2018-10-16 14:00,32.307,24.310,38.115,12.99
2018-10-16 15:00,32.318,24.316,38.136,13.00
2018-10-16 16:00,32.329,24.325,38.148,13.00
2018-10-16 17:00,32.336,24.326,38.173,13.02
2018-10-16 18:00,32.370,24.355,38.200,13.01
2018-10-16 19:00,32.405,24.388,38.210,12.98
2018-10-16 20:00,32.437,24.420,38.208,12.94
2018-10-16 21:00,32.450,24.436,38.194,12.91
2018-10-16 22:00,32.443,24.435,38.169,12.89
2018-10-16 23:00,32.430,24.427,38.146,12.88
2018-10-17 00:00,32.396,24.398,38.119,12.89
2018-10-17 01:00,32.367,24.376,38.089,12.89
2018-10-17 02:00,32.339,24.350,38.077,12.91
2018-10-17 03:00,32.355,24.369,38.067,12.88
2018-10-17 04:00,32.364,24.372,38.095,12.90
2018-10-17 05:00,32.371,24.377,38.102,12.90
2018-10-17 06:00,,,,
2018-10-17 07:00,32.381,24.388,38.094,12.88
2018-10-17 08:00,32.392,24.403,38.079,12.85
2018-10-17 09:00,,,,
2018-10-17 10:00,32.393,24.410,38.053,12.82
2018-10-17 11:00,32.394,24.415,38.036,12.80
2018-10-17 12:00,32.384,24.404,38.034,12.81
2018-10-17 13:00,32.371,24.391,38.039,12.83
2018-10-17 14:00,,,,
2018-10-17 15:00,32.370,24.386,38.056,12.85
2018-10-17 16:00,32.369,24.386,38.055,12.85
2018-10-17 17:00,32.368,24.381,38.072,12.87
2018-10-17 18:00,32.361,24.369,38.091,12.90
2018-10-17 19:00,32.372,24.378,38.103,12.90
2018-10-17 20:00,32.363,24.369,38.102,12.91
2018-10-17 21:00,32.357,24.366,38.087,12.90
2018-10-17 22:00,32.361,24.373,38.073,12.88
2018-10-17 23:00,32.370,24.384,38.065,12.86
2018-10-18 00:00,32.376,24.393,38.053,12.84
2018-10-18 01:00,32.376,24.397,38.035,12.82
2018-10-18 02:00,,,,
2018-10-18 03:00,,,,
2018-10-18 04:00,32.439,24.467,38.002,12.71
2018-10-18 05:00,,,,
2018-10-18 06:00,32.465,24.495,37.993,12.67
2018-10-18 07:00,32.474,24.507,37.975,12.64
2018-10-18 08:00,32.485,24.519,37.968,12.62
2018-10-18 10:00,32.504,24.546,37.934,12.56
2018-10-18 11:00,32.502,24.544,37.932,12.56
2018-10-18 12:00,32.516,24.566,37.892,12.50
2018-10-18 13:00,32.513,24.560,37.907,12.52
2018-10-18 14:00,32.505,24.552,37.908,12.53
2018-10-18 15:00,32.518,24.566,37.903,12.51
2018-10-18 16:00,32.491,24.547,37.866,12.50
2018-10-18 17:00,32.474,24.532,37.857,12.51
2018-10-18 18:00,32.481,24.542,37.847,12.49
2018-10-18 19:00,32.488,24.549,37.845,12.48
2018-10-18 20:00,32.485,24.548,37.833,12.47
2018-10-18 21:00,32.486,24.555,37.807,12.44
2018-10-18 22:00,32.508,24.576,37.812,12.42
2018-10-18 23:00,32.506,24.581,37.773,12.38
2018-10-19 00:00,,,,
2018-10-19 01:00,32.495,24.581,37.726,12.34
2018-10-19 02:00,32.505,24.587,37.745,12.35
2018-10-19 03:00,32.502,24.592,37.706,12.31
2018-10-19 04:00,,,,
2018-10-19 05:00,32.500,24.598,37.668,12.27
2018-10-19 06:00,32.499,24.596,37.676,12.28
2018-10-19 07:00,,,,
2018-10-19 08:00,32.500,24.600,37.659,12.26
2018-10-19 09:00,32.506,24.605,37.665,12.26
2018-10-19 10:00,32.513,24.616,37.645,12.23
2018-10-19 11:00,32.522,24.620,37.663,12.24
2018-10-19 12:00,,,,
2018-10-19 13:00,32.531,24.624,37.691,12.26
2018-10-19 14:00,32.540,24.631,37.700,12.26
2018-10-19 15:00,32.551,24.638,37.721,12.27
2018-10-19 16:00,32.563,24.641,37.760,12.30
2018-10-19 17:00,32.578,24.651,37.785,12.31
2018-10-19 18:00,32.569,24.638,37.803,12.34
2018-10-19 19:00,32.553,24.626,37.786,12.34
2018-10-19 20:00,,,,
2018-10-19 21:00,32.541,24.621,37.756,12.32
2018-10-19 22:00,32.540,24.621,37.745,12.31
2018-10-19 23:00,32.539,24.620,37.744,12.31
2018-10-20 00:00,32.536,24.618,37.741,12.31
2018-10-20 01:00,32.536,24.618,37.741,12.31
2018-10-20 02:00,32.540,24.621,37.745,12.31
2018-10-20 03:00,32.546,24.628,37.743,12.30
2018-10-20 04:00,32.550,24.625,37.774,12.33
2018-10-20 05:00,32.532,24.605,37.782,12.36
2018-10-20 06:00,32.527,24.600,37.786,12.37
2018-10-20 07:00,32.528,24.601,37.787,12.37
2018-10-20 08:00,32.540,24.608,37.809,12.38
2018-10-20 09:00,32.532,24.602,37.800,12.38
2018-10-20 10:00,32.541,24.611,37.801,12.37
2018-10-20 11:00,32.559,24.623,37.829,12.38
2018-10-20 12:00,32.564,24.629,37.825,12.37
2018-10-20 13:00,32.542,24.614,37.793,12.36
2018-10-20 14:00,32.455,24.552,37.675,12.33
2018-10-20 15:00,32.418,24.519,37.654,12.35
2018-10-20 16:00,32.403,24.502,37.666,12.38
2018-10-20 17:00,32.364,24.479,37.589,12.34
2018-10-20 18:00,32.293,24.430,37.488,12.31
2018-10-20 19:00,32.260,24.406,37.444,12.30
2018-10-20 20:00,32.243,24.391,37.436,12.31
2018-10-20 21:00,32.242,24.387,37.453,12.33
2018-10-20 22:00,32.247,24.389,37.467,12.34
2018-10-20 23:00,32.271,24.409,37.483,12.33
2018-10-21 00:00,32.287,24.422,37.500,12.33
2018-10-21 01:00,32.297,24.425,37.528,12.35
2018-10-21 02:00,32.308,24.438,37.522,12.33
2018-10-21 03:00,32.314,24.444,37.519,12.32
2018-10-21 04:00,32.332,24.462,37.520,12.30
2018-10-21 05:00,32.372,24.493,37.561,12.30
2018-10-21 06:00,32.433,24.533,37.661,12.34
2018-10-21 07:00,32.504,24.567,37.835,12.45
2018-10-21 08:00,32.529,24.581,37.888,12.48
2018-10-21 09:00,32.530,24.585,37.871,12.46
2018-10-21 10:00,,,,
2018-10-21 11:00,32.543,24.599,37.866,12.44
2018-10-21 12:00,32.546,24.609,37.833,12.40
2018-10-21 13:00,32.547,24.623,37.771,12.33
2018-10-21 14:00,32.548,24.640,37.690,12.24
2018-10-21 15:00,32.545,24.648,37.642,12.19
2018-10-21 16:00,32.559,24.674,37.584,12.11
2018-10-21 17:00,32.544,24.674,37.515,12.05
2018-10-21 18:00,32.538,24.668,37.508,12.05
2018-10-21 19:00,32.534,24.665,37.504,12.05
2018-10-21 20:00,32.540,24.668,37.519,12.06
2018-10-21 21:00,,,,
2018-10-21 22:00,32.564,24.676,37.599,12.12
2018-10-21 23:00,32.569,24.674,37.631,12.15
2018-10-22 00:00,32.571,24.674,37.642,12.16
2018-10-22 01:00,32.567,24.678,37.602,12.12
2018-10-22 02:00,32.559,24.670,37.602,12.13
2018-10-22 03:00,32.566,24.683,37.574,12.09
2018-10-22 04:00,32.571,24.685,37.588,12.10
2018-10-22 05:00,32.580,24.696,37.579,12.08
2018-10-22 06:00,32.581,24.691,37.607,12.11
2018-10-22 07:00,32.570,24.681,37.605,12.12
2018-10-22 08:00,32.573,24.681,37.617,12.13
2018-10-22 09:00,32.574,24.684,37.609,12.12
2018-10-22 10:00,32.573,24.689,37.581,12.09
2018-10-22 11:00,,,,
2018-10-22 12:00,32.600,24.719,37.564,12.04
2018-10-22 13:00,32.602,24.722,37.557,12.03
2018-10-22 14:00,32.613,24.735,37.550,12.01
2018-10-22 15:00,32.587,24.697,37.604,12.10
2018-10-22 16:00,32.584,24.682,37.664,12.17
2018-10-22 17:00,32.577,24.671,37.684,12.20
2018-10-22 18:00,32.569,24.665,37.676,12.20